Regional Weather Roundup
Issued by NWS Mt. Holly, NJ

Home | Current Version | Previous Version | Text Only | Print | Product List | Glossary On
Versions: 1 2 3 4 5 6 7 8 9 10 11 12 13 14 15 16 17 18 19 20 21 22 23 24 25 26 27 28 29 30 31 32 33 34 35 36 37 38 39 40 41 42 43 44 45 46 47 48 49 50
000
ASUS41 KPHI 011010
RWRPHI

REGIONAL WEATHER ROUNDUP
NATIONAL WEATHER SERVICE MOUNT HOLLY NJ
600 AM EDT FRI AUG 01 2014

NOTE:  "FAIR" INDICATES FEW OR NO CLOUDS BELOW 12,000 FEET WITH NO
SIGNIFICANT WEATHER AND/OR OBSTRUCTIONS TO VISIBILITY.

 * = STATION DOES NOT REPORT PRECIPITATION (E.G. RAIN, SNOW, ETC.)
        OR FOG.

NJZ015>026-011100-
SOUTHERN NEW JERSEY

CITY           SKY/WX    TMP DP  RH WIND       PRES   REMARKS
POMONA         CLOUDY    71  67  87 SW3       30.17S
RIO GRANDE*    MOCLDY    70  64  83 S3        30.18S
MILLVILLE      MOCLDY    71  66  84 CALM      30.17S
WRIGHTSTOWN    MOCLDY    68  67  95 S2        30.15S
MOUNT HOLLY    MOCLDY    68  66  93 CALM      30.16S FOG
TRENTON        PTCLDY    68  65  90 SW5       30.16S FOG

$$
NJZ001>014-011100-
NORTHERN NEW JERSEY

CITY           SKY/WX    TMP DP  RH WIND       PRES   REMARKS
SUSSEX         PTCLDY    60  57  89 CALM      30.18R FOG
ANDOVER*         N/A     61  60  97 CALM      30.18R
MORRISTOWN     FOG       61  57  88 CALM      30.17F VSB 1
NEWARK         MOCLDY    70  66  87 SW5       30.17R
TETERBORO      PTCLDY    72  65  78 CALM      30.16S
CALDWELL       PTCLDY    62  59  90 CALM      30.18R
SOMERVILLE     MOCLDY    61  59  93 CALM      30.16R
ALLAIRE*       MOCLDY    70  64  83 SW6       30.17S
TOMS RIVER*    CLOUDY    70  66  88 CALM      30.18S

$$
PAZ043-044-047-054-055-060>062-066>071-011100-
EASTERN PENNSYLVANIA

CITY           SKY/WX    TMP DP  RH WIND       PRES   REMARKS
PHILADELPHIA   MOCLDY    72  67  84 S3        30.17S
NORTH PHILA    PTCLDY    71  65  81 S3        30.18S
BLUE BELL      PTCLDY    70  68  94 CALM      30.16S
DOYLESTOWN     CLOUDY    66  66 100 CALM      30.17R
QUAKERTOWN*    CLOUDY    64  63  94 CALM      30.18R
POTTSTOWN      CLOUDY    68  66  93 CALM      30.18R
LANCASTER      PTCLDY    65  63  93 NE3       30.15S FOG
COATESVILLE    FOG       68  68 100 CALM      30.18R VSB 1
READING        PTCLDY    65  62  90 CALM      30.15R
ALLENTOWN      PTCLDY    63  60  90 NE5       30.17R
MOUNT POCONO   PTCLDY    62  58  86 CALM      30.21R
HAZLETON       PTCLDY    59  59 100 CALM      30.21S FOG
WILKES BARRE   MOCLDY    64  59  83 E6        30.17R

$$
DEZALL-MDZ008-012-015-019-020-011100-
DELAWARE AND EASTERN MARYLAND

CITY           SKY/WX    TMP DP  RH WIND       PRES   REMARKS
WILMINGTON     CLOUDY    73  68  84 S7        30.16S
DOVER          MOCLDY    69  68  94 S7        30.14S
GEORGETOWN     MOCLDY    69  65  86 SE3       30.17S
EASTON         CLOUDY    73  73 100 CALM      30.19R
PATUXENT       CLOUDY    72  65  78 S3        30.15R
OCEAN CITY     CLOUDY    72  68  87 CALM      30.16S
WALLOPS ISLAND CLOUDY    73  68  84 CALM      30.16S
CAMBRIDGE      CLOUDY    73  66  78 CALM      30.15S
SALISBURY      CLOUDY    70  65  84 CALM      30.16S

$$
PAZ001-021-NYZ056-072-MDZ011-DCZ001-011100-
OTHER NEARBY LOCATIONS

CITY           SKY/WX    TMP DP  RH WIND       PRES   REMARKS
HARRISBURG     MOCLDY    66  63  90 NE5       30.14R FOG
STATE COLLEGE  FOG       57  57 100 CALM      30.18R VSB 1/8
WILLIAMSPORT   FOG       62  60  93 CALM      30.15R VSB 1
BINGHAMTON     CLEAR     61  57  87 S5        30.18R
NEW YORK CITY  PTCLDY    72  65  78 SW5       30.20R
BALTIMORE      MOCLDY    71  68  90 CALM      30.14R
WASHINGTON DC  CLOUDY    76  68  76 S10       30.14S

$$



USA.gov is the U.S. government's official web portal to all federal, state and local government web resources and services.